Probability
0 3 35 45 48 45 48 52 52 52 61 65 61 68 61 61 65 55 58 61 48 52 55 65 65 58 58 55 55 58 55 58 61 55 58 55 61 65 68 74 65 48 81
0 13 39 45 55 52 55 45 58 61 61 65 61 65 65 71 71 61 55 61 52 45 48 48 52 58 61 65 58 55 65 55 55 52 55 55 61 68 61 58 61 48 68
10 16 32 52 55 52 52 55 65 68 61 58 58 61 68 65 58 52 61 55 55 48 48 55 55 55 61 61 52 48 58 52 48 45 39 32 48 58 58 55 58 61 68
13 6 19 48 48 45 55 61 61 52 58 55 61 58 61 65 58 45 48 58 48 45 39 42 48 55 48 55 52 58 45 42 42 39 16 19 19 42 61 58 55 58 68
13 10 16 42 48 39 52 55 55 55 55 55 58 61 58 61 65 52 48 52 45 35 39 42 52 61 58 58 55 48 45 45 42 16 6 10 16 42 48 52 55 48 55
10 10 16 42 42 42 52 52 52 58 52 55 48 52 61 61 52 42 48 52 52 39 45 52 58 61 61 58 58 58 52 45 16 6 6 6 16 48 61 65 52 52 45
10 16 23 39 42 45 45 52 48 52 45 45 52 55 65 61 55 55 58 61 45 42 45 52 48 55 58 61 55 55 48 39 10 10 10 10 13 45 48 55 52 45 35
6 16 23 48 52 48 45 48 48 48 45 45 48 48 55 58 58 48 58 55 48 42 45 52 48 45 48 52 55 55 45 35 10 6 10 10 23 45 45 45 39 42 39
6 10 10 23 23 39 45 48 52 55 45 52 55 61 52 48 48 61 55 48 42 39 35 42 45 48 55 52 55 52 52 35 16 10 10 10 23 48 42 42 32 35 39
6 6 6 10 13 16 19 35 45 55 55 52 55 55 48 39 29 39 45 45 35 35 39 42 42 42 42 45 58 52 45 29 10 6 6 10 29 26 35 35 29 32 35
3 6 3 6 6 10 10 16 23 32 39 45 39 55 35 6 6 16 26 39 29 35 39 45 45 39 39 42 42 45 19 6 6 6 6 10 26 23 29 32 29 35 39
3 0 6 6 0 0 6 6 10 10 10 10 6 6 0 0 0 10 29 45 32 32 29 39 32 29 13 13 29 23 6 3 3 6 6 13 29 29 26 32 35 32 32
0 0 0 3 0 0 0 0 0 0 0 0 0 3 0 0 0 0 0 0 0 6 6 16 13 10 3 3 3 3 6 6 6 6 6 19 29 35 32 32 35 32 26
0 0 0 3 0 0 0 0 0 0 0 0 0 3 3 0 0 0 0 0 0 0 3 6 6 3 3 3 3 3 3 3 3 3 3 23 29 32 32 26 35 29 32
0 3 3 6 0 0 0 0 0 0 0 0 3 3 3 0 0 0 0 0 0 0 3 3 6 3 3 3 3 3 3 3 3 3 6 13 32 32 26 29 26 29 26
0 3 6 6 0 0 0 0 0 0 0 3 3 0 0 0 0 0 0 0 0 0 3 3 6 3 3 3 3 3 3 0 0 3 3 10 23 32 32 32 35 26 35
0 3 3 6 0 0 0 0 0 0 3 3 0 0 0 0 0 0 0 0 0 0 3 3 6 3 3 3 3 3 0 0 3 3 3 6 16 26 35 32 42 42 39
3 3 6 13 6 0 0 0 0 3 3 0 0 3 6 3 0 0 0 0 3 3 3 6 6 3 3 3 3 3 3 3 3 3 3 6 10 10 26 29 35 39 39
10 10 10 10 6 0 3 3 3 3 6 3 3 6 6 6 3 0 0 3 3 3 6 6 3 3 3 3 3 3 3 6 3 3 3 3 6 10 10 16 29 39 32
10 10 13 13 10 6 6 3 3 0 3 3 3 3 3 6 6 3 3 0 0 3 6 0 3 3 3 3 3 3 3 3 3 3 3 3 3 3 6 13 19 19 29
16 13 6 10 3 3 3 3 3 3 3 10 6 3 3 3 10 6 10 3 0 0 3 0 3 3 3 3 3 3 0 3 3 3 3 3 3 3 3 13 13 10 13
10 10 6 3 3 3 3 3 3 3 3 10 6 6 6 6 10 10 6 6 3 6 6 3 6 3 3 3 3 3 3 3 0 3 0 3 3 3 3 6 6 10 10
10 10 10 3 3 3 3 6 6 6 10 6 10 10 10 6 10 13 13 6 6 3 6 6 10 10 6 3 3 3 3 3 0 0 3 3 10 10 6 10 6 3 6
10 6 3 3 6 6 3 6 10 6 6 10 3 6 10 10 10 13 16 10 10 13 10 13 16 13 13 10 6 3 3 3 10 10 3 3 3 3 6 3 10 3 3
10 6 6 6 6 3 6 6 6 10 6 6 10 10 13 10 10 10 16 10 13 13 10 6 13 10 10 10 10 6 6 6 3 6 6 6 3 3 3 3 6 0 0
3 6 6 6 0 0 3 3 6 6 10 10 10 10 10 10 6 6 10 10 10 10 10 6 10 13 13 10 13 10 10 10 13 3 10 6 6 10 6 6 3 0 0
Height
5863 5863 5863 5863 5863 5863 5863 5863 5863 5863 5864 5864 5865 5865 5865 5866 5867 5867 5868 5869 5870 5871 5872 5874 5875 5876 5877 5878 5879 5880 5881 5882 5882 5883 5884 5885 5886 5887 5888 5889 5889 5890 5891
5864 5864 5864 5864 5864 5864 5864 5864 5864 5864 5864 5865 5865 5865 5866 5867 5867 5867 5868 5869 5871 5872 5873 5874 5875 5877 5877 5878 5879 5880 5881 5882 5882 5884 5884 5885 5886 5887 5888 5889 5889 5890 5891
5864 5865 5865 5865 5865 5865 5864 5865 5864 5865 5865 5865 5866 5866 5867 5867 5867 5868 5868 5869 5871 5872 5873 5875 5876 5877 5877 5878 5879 5881 5881 5881 5882 5883 5884 5885 5886 5887 5888 5889 5889 5890 5891
5865 5866 5866 5865 5865 5865 5865 5865 5865 5866 5866 5866 5867 5867 5867 5867 5868 5868 5868 5868 5870 5872 5873 5875 5876 5877 5878 5878 5880 5881 5882 5882 5883 5883 5884 5885 5886 5887 5888 5889 5889 5890 5891
5867 5867 5867 5867 5866 5866 5867 5867 5867 5867 5867 5868 5868 5868 5868 5868 5868 5868 5867 5868 5870 5872 5874 5875 5876 5877 5878 5879 5880 5881 5882 5882 5883 5883 5884 5885 5886 5887 5888 5888 5889 5890 5890
5868 5868 5868 5868 5868 5868 5868 5868 5867 5867 5868 5868 5869 5869 5869 5869 5869 5869 5869 5870 5872 5873 5874 5875 5876 5877 5878 5878 5879 5881 5882 5882 5882 5883 5884 5885 5886 5887 5887 5888 5889 5889 5890
5869 5869 5869 5869 5869 5869 5869 5869 5869 5869 5869 5869 5869 5869 5870 5870 5870 5871 5871 5872 5873 5874 5875 5875 5876 5878 5878 5879 5879 5880 5881 5882 5883 5884 5884 5885 5886 5886 5887 5888 5889 5889 5889
5870 5870 5870 5870 5870 5870 5870 5870 5870 5870 5870 5870 5870 5870 5871 5871 5871 5872 5872 5873 5874 5874 5875 5876 5877 5878 5879 5879 5879 5880 5880 5882 5882 5883 5884 5885 5886 5887 5887 5888 5889 5889 5890
5872 5871 5871 5871 5871 5871 5871 5871 5871 5871 5871 5871 5871 5871 5871 5872 5872 5873 5873 5874 5875 5875 5876 5877 5878 5878 5879 5880 5880 5880 5881 5881 5882 5883 5884 5885 5886 5886 5887 5888 5888 5889 5890
5873 5873 5873 5872 5872 5872 5872 5872 5872 5872 5873 5873 5873 5873 5873 5873 5874 5874 5874 5875 5875 5876 5877 5877 5878 5878 5879 5880 5881 5881 5882 5882 5883 5883 5884 5885 5885 5886 5887 5888 5888 5889 5889
5875 5875 5874 5874 5874 5874 5874 5874 5874 5874 5874 5874 5874 5874 5874 5875 5875 5875 5875 5875 5876 5877 5877 5878 5878 5879 5880 5881 5882 5882 5883 5883 5883 5883 5884 5884 5885 5886 5887 5887 5888 5888 5889
5877 5876 5876 5876 5875 5875 5875 5875 5876 5876 5876 5876 5876 5876 5876 5876 5876 5876 5876 5877 5877 5878 5878 5879 5879 5880 5881 5882 5882 5882 5883 5884 5884 5884 5884 5885 5885 5886 5886 5887 5887 5888 5888
5879 5878 5878 5878 5877 5877 5877 5877 5877 5877 5877 5877 5877 5877 5877 5877 5878 5878 5878 5878 5878 5879 5880 5880 5881 5881 5882 5883 5883 5883 5884 5884 5884 5884 5884 5885 5885 5886 5886 5886 5887 5887 5887
5881 5880 5880 5880 5879 5879 5879 5879 5879 5879 5879 5879 5879 5879 5879 5879 5879 5879 5879 5879 5879 5880 5880 5881 5881 5882 5883 5883 5883 5884 5884 5884 5884 5885 5885 5885 5886 5886 5886 5886 5886 5886 5886
5883 5882 5882 5881 5881 5881 5881 5881 5881 5881 5881 5881 5881 5881 5880 5880 5880 5880 5880 5880 5881 5881 5882 5882 5882 5883 5883 5883 5884 5884 5884 5884 5884 5885 5885 5885 5886 5885 5886 5886 5885 5885 5885
5885 5884 5884 5883 5883 5883 5882 5882 5882 5882 5882 5882 5882 5882 5882 5882 5882 5881 5881 5881 5882 5882 5883 5883 5883 5883 5883 5884 5884 5884 5884 5885 5885 5885 5885 5885 5885 5885 5885 5885 5885 5884 5884
5887 5887 5886 5886 5885 5884 5884 5884 5884 5884 5884 5884 5883 5883 5883 5883 5883 5882 5882 5882 5883 5883 5883 5883 5883 5883 5884 5884 5884 5884 5885 5885 5885 5885 5885 5885 5885 5884 5884 5884 5884 5884 5884
5890 5889 5888 5887 5887 5886 5885 5885 5885 5885 5885 5885 5885 5884 5884 5884 5884 5884 5883 5883 5883 5883 5883 5884 5884 5884 5884 5884 5884 5884 5885 5885 5885 5884 5884 5884 5884 5883 5883 5883 5883 5882 5882
5892 5891 5890 5890 5888 5887 5887 5887 5887 5887 5887 5887 5886 5886 5885 5885 5885 5885 5885 5884 5884 5884 5884 5884 5884 5884 5884 5884 5884 5885 5885 5884 5884 5884 5884 5884 5883 5883 5882 5882 5881 5881 5880
5895 5894 5893 5892 5891 5890 5890 5890 5889 5889 5889 5889 5888 5888 5887 5887 5886 5886 5886 5886 5885 5885 5885 5885 5885 5885 5885 5885 5885 5885 5885 5884 5884 5883 5883 5883 5882 5882 5881 5881 5880 5879 5879
5897 5896 5895 5894 5894 5893 5892 5892 5892 5891 5891 5891 5890 5890 5889 5888 5888 5888 5887 5887 5887 5886 5886 5886 5886 5886 5885 5885 5885 5884 5884 5884 5883 5883 5882 5882 5881 5881 5880 5879 5878 5877 5876
5899 5898 5897 5897 5896 5895 5895 5894 5894 5893 5893 5892 5892 5891 5891 5890 5890 5889 5889 5888 5888 5887 5887 5887 5887 5886 5886 5885 5885 5884 5884 5884 5883 5882 5881 5881 5880 5879 5879 5878 5877 5876 5875
5902 5901 5900 5899 5898 5897 5897 5896 5896 5895 5894 5894 5894 5893 5892 5892 5891 5890 5890 5889 5888 5888 5887 5887 5886 5886 5886 5885 5885 5884 5883 5883 5882 5881 5881 5880 5879 5878 5877 5876 5875 5874 5873
5903 5902 5902 5901 5900 5899 5898 5898 5897 5897 5896 5895 5895 5894 5893 5893 5892 5891 5890 5889 5889 5888 5887 5887 5886 5886 5885 5885 5884 5884 5883 5882 5882 5881 5880 5879 5878 5876 5875 5874 5873 5872 5871
5905 5904 5903 5902 5901 5900 5900 5899 5899 5898 5897 5896 5895 5895 5894 5893 5892 5891 5891 5890 5889 5888 5887 5886 5886 5885 5885 5884 5883 5883 5882 5881 5880 5880 5879 5878 5876 5875 5873 5872 5871 5869 5868
5906 5905 5904 5903 5903 5902 5901 5900 5899 5898 5898 5897 5896 5895 5894 5893 5893 5892 5891 5890 5889 5887 5887 5886 5885 5884 5884 5883 5882 5882 5881 5880 5879 5878 5877 5876 5874 5873 5872 5870 5869 5867 5866
Wind_Speed
5 5 5 4 4 5 5 6 6 5 5 5 5 5 5 5 5 6 6 5 6 6 6 7 7 6 6 6 5 5 5 6 7 7 6 6 6 6 6 5 5 5 5
5 5 4 4 4 5 5 5 6 5 5 6 6 6 5 5 5 6 6 7 7 6 6 7 7 6 6 5 5 5 4 5 6 7 6 6 6 6 6 6 5 5 5
6 5 5 5 5 5 6 6 6 6 6 6 6 6 6 6 6 6 6 7 7 7 7 7 7 6 6 6 5 5 4 5 6 6 6 5 5 5 5 5 5 5 4
6 6 6 6 6 6 7 7 7 7 6 6 6 6 6 6 6 6 6 6 7 7 6 6 6 6 6 6 5 4 4 4 4 5 5 5 5 5 5 5 4 4 4
7 7 7 7 8 7 7 7 7 7 6 6 6 6 6 6 6 6 7 7 7 7 6 6 6 6 6 5 5 4 4 4 4 4 5 5 5 5 4 4 4 4 5
7 7 8 8 8 8 7 7 7 7 6 6 6 7 6 6 6 7 7 7 7 6 6 5 6 5 4 5 4 4 4 4 4 4 4 5 4 4 4 4 4 4 5
7 8 8 8 8 7 8 7 7 6 5 6 7 7 7 6 6 7 7 7 6 6 6 5 6 5 5 4 4 3 4 4 5 4 4 5 4 4 4 4 4 4 5
8 8 8 8 7 7 8 8 8 8 7 7 8 8 8 7 6 7 6 6 6 6 5 5 5 5 5 4 4 3 4 4 5 5 4 4 5 4 3 4 4 4 4
9 9 8 8 8 8 8 9 9 9 9 8 8 8 7 7 6 6 6 6 6 6 6 5 5 5 5 4 3 3 3 3 4 4 3 4 4 4 4 3 3 3 4
9 9 8 8 8 7 8 9 9 9 8 9 8 8 7 7 6 6 6 7 7 7 6 5 5 5 5 4 3 4 3 3 2 3 2 3 3 3 3 3 4 4 5
10 10 9 9 8 8 8 9 9 9 8 8 8 8 8 7 6 6 6 6 6 6 5 5 5 5 5 4 4 4 2 1 1 2 2 3 3 3 3 3 3 4 5
11 11 10 9 9 9 9 9 8 9 9 9 8 8 8 8 6 6 6 6 6 5 5 5 5 5 4 4 3 3 1 0 1 1 3 3 2 2 2 2 3 3 4
11 11 10 10 9 10 10 9 9 10 10 9 9 8 8 8 8 7 6 5 5 5 4 3 3 5 3 2 2 1 1 0 1 1 2 2 2 1 2 2 3 3 5
11 11 10 9 10 10 10 10 10 10 10 9 9 8 7 6 6 6 6 6 5 4 3 2 2 3 2 2 1 1 1 1 1 1 1 1 1 2 2 2 3 4 6
12 12 11 10 9 9 9 9 9 9 9 8 8 8 7 7 6 5 5 5 5 4 3 2 2 2 2 2 1 1 1 1 0 0 1 1 2 2 2 3 4 4 5
12 12 11 10 10 9 9 9 8 8 7 7 7 7 7 6 6 5 5 5 4 4 4 3 2 2 2 1 1 1 1 1 1 1 1 1 2 2 3 4 5 5 6
13 12 11 10 10 9 9 9 8 7 7 8 7 7 7 6 6 6 6 5 4 4 3 3 2 2 2 1 2 2 1 0 1 1 2 2 3 3 4 4 5 5 6
13 12 12 11 11 10 10 9 9 9 8 8 8 8 7 7 6 6 6 5 4 4 4 4 3 3 3 2 2 1 2 1 1 2 3 3 4 5 5 5 6 7 7
13 12 12 12 12 11 10 10 9 9 9 8 8 8 8 8 7 6 5 5 5 4 4 4 3 3 3 2 2 2 2 2 3 3 3 4 5 5 6 7 7 7 8
13 13 12 12 12 12 11 11 10 10 9 8 8 8 8 8 8 7 6 6 5 4 4 4 3 3 2 2 2 2 2 3 3 4 4 5 5 6 7 7 7 8 9
12 12 12 12 12 12 12 12 11 10 10 9 9 9 8 8 8 7 6 6 5 4 4 3 3 3 2 2 3 3 3 3 4 4 5 5 6 7 7 8 8 8 9
12 12 12 12 12 11 11 11 11 11 10 9 8 9 8 8 7 7 6 6 5 4 3 2 2 2 2 3 4 4 5 5 4 4 5 6 7 7 8 8 9 9 9
11 11 11 11 11 10 10 10 10 10 10 9 8 8 8 7 6 6 5 5 5 4 3 3 3 3 2 3 3 4 5 5 5 6 6 7 7 8 9 9 10 10 11
11 10 10 10 10 10 9 9 8 8 9 8 8 7 7 7 6 6 6 5 5 4 4 4 3 3 3 3 4 4 5 6 6 6 7 8 9 9 10 11 11 12 12
9 10 9 9 9 9 8 8 7 7 7 7 7 6 6 6 6 6 6 6 6 5 4 4 4 4 4 4 5 5 6 7 6 6 8 10 10 10 11 12 13 13 13
8 8 8 8 8 8 8 7 7 6 6 6 5 6 6 6 6 6 6 6 6 6 5 6 5 5 5 5 6 6 7 8 8 8 9 11 11 12 12 13 13 14 14
Wind_Direction
97 96 102 101 93 81 74 78 82 84 94 98 96 99 110 118 125 135 134 134 130 133 138 139 140 138 138 146 148 142 155 159 166 177 183 184 185 184 188 189 182 182 192
95 97 97 95 94 84 80 78 81 84 90 99 98 103 109 113 124 134 133 135 134 136 137 140 144 141 144 153 157 148 146 156 169 172 172 178 182 186 196 197 196 197 198
98 100 93 90 90 86 80 80 84 85 86 95 98 103 99 104 115 124 127 135 136 137 138 142 144 146 148 146 147 154 150 154 160 169 175 177 180 185 196 197 201 202 200
97 99 92 87 87 83 78 79 83 83 87 94 97 98 101 103 111 121 125 134 139 137 135 139 143 149 153 154 154 160 163 170 173 176 188 195 196 189 194 199 201 207 205
98 97 92 92 89 85 81 82 85 85 90 97 103 101 107 107 111 117 120 128 135 135 132 137 141 151 155 153 160 164 169 182 186 185 189 199 200 196 205 205 207 211 210
94 92 92 91 87 84 86 84 84 85 97 101 106 102 108 109 110 111 119 121 127 131 130 136 137 142 150 153 151 158 170 183 185 186 187 188 194 200 205 200 202 194 194
90 91 91 86 84 80 82 89 91 91 97 101 105 105 106 109 112 114 119 124 129 132 126 136 144 150 149 154 153 149 162 179 177 181 179 189 195 206 206 205 195 195 202
91 96 89 83 85 82 80 85 93 90 84 97 100 102 101 104 111 119 120 125 128 137 141 138 146 152 148 146 139 142 154 179 184 178 180 197 199 198 200 194 193 201 217
88 92 87 84 86 85 83 85 88 88 85 86 90 96 99 103 108 117 123 130 132 134 138 137 144 153 155 155 154 155 164 166 147 156 173 182 190 188 189 193 202 207 214
88 87 87 86 87 88 88 90 88 85 85 85 85 92 95 92 94 110 122 130 130 131 135 142 146 147 150 147 142 149 160 148 117 147 159 181 194 190 192 212 216 220 221
83 80 81 85 86 87 89 88 86 83 86 87 86 87 96 100 100 106 113 124 126 124 128 132 143 144 142 142 148 158 164 147 134 154 164 170 174 184 199 208 218 228 223
80 80 83 85 85 88 88 87 85 83 83 85 88 88 91 95 98 109 112 118 127 127 131 128 138 153 153 156 167 158 117 51 121 120 140 151 159 182 215 232 243 241 237
77 78 80 83 85 86 85 84 83 81 83 85 85 88 88 88 88 95 109 116 122 125 134 144 132 146 148 154 159 184 148 103 91 138 141 163 174 193 219 250 265 257 254
75 78 78 83 83 82 81 81 79 80 81 79 79 84 86 88 91 95 103 103 101 105 128 145 142 139 145 150 165 165 137 131 124 135 147 186 216 230 237 261 277 277 266
70 75 77 79 83 82 81 83 79 81 82 78 79 84 85 90 91 95 102 104 101 103 114 149 149 135 154 164 160 187 167 147 157 113 170 235 241 242 249 262 267 266 270
67 68 73 79 78 78 81 87 87 83 83 78 81 85 89 93 93 95 97 100 102 105 102 121 139 127 121 132 100 94 131 154 212 227 234 274 278 284 283 283 281 280 275
66 65 67 72 72 71 77 81 85 86 87 80 78 81 86 90 98 88 94 100 100 98 98 106 99 122 109 101 90 76 85 113 257 275 269 283 288 293 304 298 293 287 283
66 64 64 68 66 67 70 70 73 76 81 80 75 73 76 77 81 88 90 95 97 97 93 90 78 83 86 90 86 63 49 27 317 308 305 307 305 296 302 305 298 292 291
66 65 65 65 66 70 72 69 71 74 77 74 72 70 69 69 70 80 90 80 87 90 84 83 82 76 76 67 58 51 25 356 326 320 314 311 311 306 305 304 300 297 295
67 66 66 65 67 70 72 70 72 75 77 76 71 69 69 70 69 75 80 73 76 82 84 81 78 66 58 49 44 33 10 354 337 334 322 315 312 313 315 314 307 303 298
65 65 65 66 69 70 71 71 71 72 73 71 68 69 68 68 68 74 73 69 75 76 78 77 65 46 43 30 23 8 346 338 333 332 331 323 322 324 322 323 320 314 307
64 64 64 64 65 67 69 71 71 70 72 71 68 67 65 64 65 68 64 65 65 63 65 64 46 27 22 18 15 1 347 335 337 337 333 326 324 324 322 322 323 321 312
64 66 63 62 61 64 67 69 70 69 67 67 65 63 61 56 58 61 58 50 45 43 34 32 20 12 10 6 1 352 345 332 325 330 332 328 320 318 319 320 322 319 318
62 64 62 59 57 59 65 67 66 64 62 59 56 55 53 50 45 38 31 25 18 11 6 2 357 358 353 348 348 347 342 332 333 329 330 329 324 320 318 319 320 319 318
58 57 57 57 56 54 53 56 57 53 50 46 44 42 40 41 37 26 18 14 8 358 347 340 338 334 335 335 335 336 329 325 329 331 332 330 324 321 319 318 319 320 319
51 50 49 49 50 49 45 43 43 42 37 32 30 26 24 23 17 12 4 0 357 349 338 328 322 318 318 317 317 320 319 318 318 319 326 327 325 321 318 318 319 317 316